Location: Montsoreau
(47.2170°N, 0.0545°E)
Time: 02:10:31
(UTC+00:00)

Daily predictions for brighter satellites

Satellite Brightness Start Highest point End
(mag) Time Altitude Azimuth Time Altitude Azimuth Time Altitude Azimuth
ATLAS 3B R/B 3.9 03:30:35 34° NNE 03:30:39 34° NNE 03:37:00 10° E
ALOS 4.3 03:50:20 10° NE 03:53:16 26° ENE 03:53:16 26° ENE
NOSS 3-2 (C) 4.0 04:00:08 71° S 04:00:08 71° S 04:07:46 10° SSE
NOSS 3-4 (A) 4.0 04:00:49 51° ESE 04:00:49 51° ESE 04:06:50 10° NE
NOSS 3-4 (C) 4.0 04:00:54 51° ESE 04:00:56 51° ESE 04:06:58 10° NE
CENTAUR R/B 3.1 04:01:35 77° SSW 04:01:35 77° SSW 04:10:04 10° SSE
ATLAS 2AS CENTAUR R/B 3.4 04:15:30 25° SSW 04:20:20 61° ESE 04:28:04 10° NE
Atlas Centaur 2 4.5 04:26:40 14° S 04:27:51 15° S 04:31:06 10° SE
ATLAS 5 CENTAUR R/B 4.2 04:31:19 16° NNE 04:31:19 16° NNE 04:31:51 10° NE
ATLAS CENTAUR R/B 3.1 04:32:06 27° ENE 04:32:06 27° ENE 04:34:51 10° ESE
Lacrosse 5 2.3 04:32:03 56° SE 04:32:12 56° SE 04:37:10 10° ENE
ADEOS 4.0 04:29:14 10° NNE 04:34:25 61° ESE 04:39:34 10° S
Cosmos 1328 Rocket 4.2 04:35:39 55° ESE 04:35:39 55° ESE 04:39:38 10° SSE
Gbstr 26 Del rocket 3.9 04:43:34 40° ESE 04:43:34 40° ESE 04:46:10 10° ESE
Cosmos 2263 Rocket 2.3 04:43:11 58° NNW 04:43:11 58° NNW 04:48:03 10° NNE
SJ 16-02 1.8 04:45:52 54° NE 04:45:52 54° NE 04:49:22 10° NNE
Meteor 1-26 Rocket 4.1 04:48:59 22° N 04:52:54 89° ENE 04:58:32 10° S
FENGYUN 3A 3.5 04:53:54 10° N 04:59:20 75° WNW 05:04:42 10° SSW
Cosmos 1408 Rocket 3.8 04:57:45 10° S 05:02:11 69° E 05:06:37 10° NNE
Cosmos 2181 Rocket 3.8 04:57:52 10° NNW 05:04:05 77° W 05:10:12 10° S
USA 307 4.0 05:05:08 33° N 05:05:08 33° N 05:09:04 10° ENE
COSMO-SKYMED 1 2.6 05:01:38 10° SSE 05:05:58 80° ENE 05:07:59 32° N
Cosmos 1709 Rocket 4.0 05:00:39 10° SSW 05:06:55 58° WNW 05:13:13 10° N
USA 308 3.9 05:11:14 32° N 05:11:31 33° N 05:15:27 10° ENE
Lacrosse 4 Rocket 2.6 05:14:32 30° SSW 05:14:32 30° SSW 05:17:22 10° S
Meteor 2-3 Rocket 3.6 05:08:28 10° SSW 05:14:10 68° WNW 05:19:58 10° N
CZ-4C R/B 2.2 05:11:05 17° SSW 05:14:57 76° SE 05:20:55 10° NE
MOS 1 Rocket 4.4 05:11:50 10° SE 05:16:27 47° ENE 05:21:22 10° N
Cosmos 1943 4.2 05:17:53 28° SW 05:17:53 28° SW 05:21:39 10° SSW
CZ-4B R/B 3.3 05:13:25 10° NNE 05:17:56 71° ESE 05:22:19 10° S
FALCON 9 DEB 3.1 05:18:33 72° ESE 05:18:33 72° ESE 05:21:39 10° ENE
Cosmos 1689 Rocket 2.8 05:16:05 10° SSE 05:18:12 45° SSE 05:18:12 45° SSE
ATLAS 3B R/B 2.7 05:17:52 27° NW 05:22:01 80° SW 05:29:13 10° SSE
SAR-Lupe-4 3.5 05:19:15 10° S 05:22:38 62° WSW 05:22:38 62° WSW
Cosmos 1862 4.1 05:23:00 10° S 05:26:57 54° E 05:30:56 10° NNE
Genesis I 3.3 05:24:54 17° SSW 05:27:45 70° SE 05:31:36 10° NE
deb Chang Zheng 4 3.6 05:27:29 10° N 05:31:44 54° WNW 05:35:58 10° SSW
ALOS 2.8 05:27:35 10° N 05:31:45 36° WNW 05:31:45 36° WNW
Cosmos 990 Rocket 3.9 05:29:53 10° SSW 05:35:07 72° WNW 05:40:24 10° NNE
Cosmos 2074 Rocket 3.9 05:30:37 10° S 05:36:50 83° W 05:43:05 10° N
METEOR-M 4.4 05:34:16 10° N 05:39:20 44° WNW 05:44:21 10° SW
SAR-Lupe-1 4.4 05:36:26 10° S 05:39:50 41° W 05:40:08 40° W
USA 305 3.9 05:38:55 26° NW 05:40:32 35° N 05:44:31 10° ENE
BREEZE M DEB (TANK) 4.1 05:32:39 10° SW 05:41:03 40° SSE 05:44:03 10° E
Meteor 1-31 Rocket 3.7 05:37:59 10° N 05:40:29 29° NW 05:40:29 29° NW
Cosmos 405 Rocket 2.9 05:39:03 10° S 05:42:43 70° E 05:46:28 10° NNE
Cosmos 1812 2.6 05:43:05 10° N 05:46:57 87° W 05:50:47 10° S
EO 1 Delta rocket 3.8 05:42:09 10° S 05:47:11 79° W 05:51:50 10° NNW
USA 306 3.9 05:47:01 23° NW 05:49:02 36° N 05:53:01 10° E
Cosmos 2228 Rocket 3.0 05:45:02 10° N 05:49:29 85° W 05:53:52 10° S
Cosmos 1515 Rocket 3.9 05:46:48 17° NNW 05:49:57 41° W 05:54:08 10° SSW
CENTAUR R/B 4.2 05:48:49 20° W 05:51:08 22° WSW 05:57:23 10° SSW
NOSS 3-4 (A) 3.9 05:48:19 21° W 05:51:51 41° NW 05:57:57 10° NNE
NOSS 3-4 (C) 3.9 05:48:24 21° W 05:51:58 41° NW 05:58:05 10° NE
SL-4 R/B 2.5 05:50:37 27° NW 05:52:14 42° N 05:55:45 10° ENE
PSLV R/B 4.2 05:48:44 10° S 05:52:42 44° W 05:55:47 16° NNW
Cosmos 1782 3.7 05:52:14 27° WNW 05:52:49 28° W 05:56:17 10° SSW
DMSP B5D1-3 4.5 05:48:48 10° SSE 05:53:57 87° WSW 05:59:09 10° NNW
SKYMED 2 4.2 05:50:15 10° SSW 05:54:10 33° W 05:56:36 19° NW
Cosmos 2184 Rocket 4.0 05:48:07 10° SSW 05:54:22 65° W 06:00:45 10° N
USA-17 4.2 05:51:05 10° SW 05:54:48 82° NW 05:57:54 10° NE
ERS-2 4.5 05:53:50 10° SW 05:53:52 10° SW 05:53:52 10° SW
FALCON 9 DEB 3.1 05:56:58 30° W 05:58:17 54° NNW 06:01:27 10° ENE
SJ-12 4.5 05:55:02 10° N 05:58:43 33° WNW 06:02:22 10° SW
USA 234 4.2 05:52:42 10° ENE 05:59:02 51° SE 06:05:22 10° SSW
Cosmos 1844 Rocket 2.6 05:55:06 10° SW 06:00:44 69° WNW 06:06:25 10° NNE
FALCON 9 DEB 4.2 05:59:52 21° NW 06:01:34 35° N 06:04:48 10° E
Cosmos 1680 Rocket 4.4 06:00:25 18° NW 06:03:15 29° W 06:07:46 10° SSW
EXPRESS MD2 3.9 06:03:37 21° WNW 06:06:12 85° NNE 06:13:41 10° ESE
Cosmos 1707 Rocket 4.2 06:02:12 10° N 06:06:29 56° ENE 06:10:44 10° SSE
COSMOS 2455 3.2 06:02:51 10° SSW 06:08:50 70° ESE 06:14:51 10° NE
RESURS DK-1 2.8 06:05:14 10° SW 06:09:10 40° NW 06:13:07 10° NNE
Meteor PRIRODA 4.3 06:06:45 10° N 06:10:08 32° WNW 06:13:29 10° SW
ATLAS CENTAUR R/B 1.9 06:08:18 20° WNW 06:10:22 35° WSW 06:13:58 10° S
BREEZE-M DEB 4.1 06:02:56 16° WNW 06:10:47 52° SW 06:14:04 10° SE
ATLAS 2AS CENTAUR R/B 3.3 06:04:05 10° WSW 06:11:43 46° NW 06:19:09 10° NE
NOAA 6 4.1 06:06:47 10° NNE 06:11:57 84° ESE 06:17:04 10° SSW
EP 3 4.0 06:11:51 34° WNW 06:12:01 35° NW 06:13:49 10° NNE
ERBS 4.2 06:11:05 14° NNW 06:12:14 16° N 06:14:22 10° NNE
Cosmos 1500 Rocket 3.9 06:09:58 10° SSW 06:14:03 41° WNW 06:18:11 10° N
H-2A R/B 3.0 06:10:45 10° N 06:14:32 48° WNW 06:18:16 10° SSW
Cosmos 1844 3.6 06:09:07 10° SW 06:14:38 67° WNW 06:20:13 10° NNE
Lacrosse 5 2.3 06:11:18 14° W 06:15:21 43° NNW 06:20:12 10° NE
Atlas Centaur 2 4.4 06:13:07 10° SW 06:15:48 13° SSW 06:18:13 10° SSE
Cosmos 1437 Rocket 2.6 06:13:19 10° NNW 06:17:05 63° W 06:20:48 10° S
CZ-4B DEB 4.2 06:11:37 10° NNE 06:17:07 87° WNW 06:22:35 10° SSW
Cosmos 372 Rocket 4.0 06:13:06 10° SSW 06:18:11 89° ESE 06:23:20 10° NNE
Okean O Rocket 2.4 06:16:15 10° NNE 06:20:39 58° E 06:25:03 10° S
Cosmos 1242 Rocket 4.4 06:18:42 10° N 06:22:01 31° ENE 06:25:19 10° SE
PAYLOAD B 4.3 06:18:00 10° NNE 06:23:34 88° ESE 06:29:04 10° SSW
SJ 16-02 3.0 06:22:57 14° WNW 06:24:06 15° NW 06:26:36 10° NNW
SMAP 3.4 06:19:42 10° NNE 06:24:23 74° ESE 06:29:01 10° S
USA 81 4.3 06:19:16 10° S 06:24:30 74° E 06:29:46 10° N
Cosmos 2263 Rocket 3.8 06:24:56 12° WNW 06:27:28 16° NW 06:30:52 10° N
Gbstr 26 Del rocket 4.3 06:26:06 11° W 06:28:47 22° SW 06:31:55 10° S
ATLAS 5 CENTAUR R/B 2.9 06:27:23 10° SSW 06:31:12 43° ESE 06:35:28 10° NE
FALCON 9 DEB 3.6 06:28:58 12° W 06:31:44 39° NNW 06:34:47 10° NE
FALCON 9 DEB 3.6 06:29:05 12° W 06:31:48 38° NNW 06:34:51 10° NE
Nadezhda 3 Rocket 4.3 06:28:44 10° NNW 06:34:41 45° W 06:40:33 10° SSW
Sich 1 3.1 06:30:18 10° SSW 06:34:42 66° W 06:39:08 10° N
Cosmos 1898 Rocket 4.3 06:30:08 10° WSW 06:34:46 30° NW 06:39:27 10° N
CZ-2C R/B 2.7 06:30:31 10° SSE 06:36:01 86° WSW 06:41:25 10° NNW
AQUARIUS 4.2 06:33:36 10° NNE 06:38:08 89° ESE 06:42:36 10° SSW
H-2A R/B 2.4 06:34:50 10° N 06:38:34 50° WNW 06:42:16 10° SSW
Envisat 3.1 06:33:45 10° N 06:38:42 53° WNW 06:43:38 10° SW
COSMO-SKYMED 1 4.5 06:41:17 10° WSW 06:42:42 11° W 06:44:06 10° WNW
CORIOLIS 4.3 06:38:04 10° NNE 06:43:34 84° ESE 06:49:00 10° SSW
USA 307 3.4 06:41:34 10° NW 06:45:49 53° NNE 06:50:02 10° E
Cosmos 2082 Rocket 3.1 06:42:21 10° NNW 06:47:54 49° ENE 06:53:25 10° SE
CZ-4B R/B 3.2 06:43:04 10° NNE 06:48:26 81° WNW 06:53:52 10° SSW
NOAA 11 4.5 06:44:39 10° NNE 06:50:10 77° ESE 06:55:40 10° S
CZ-4 R/B 3.9 06:47:19 10° NE 06:50:57 27° E 06:54:34 10° SSE
Cosmos 1937 Rocket 4.3 06:47:18 10° WSW 06:51:44 28° NW 06:56:14 10° N
